FW0797 Weather Reports


Display with metric or nautical units.
time (UTC)temp
F
wind
direction
speed
MPH
gust
MPH
rain 1hr
in
rain 24hr
in
rain mn
in
humidity
%
barometer
mb
20181210123102 23 335 7.0 13.0 0.00 0.00 0.00 79 1018.2
20181210121605 23 340 6.0 9.0 0.00 0.00 0.00 80 1018.2
20181210120143 23 326 4.0 10.0 0.00 0.00 0.00 78 1018.1
20181210114608 23 309 5.0 7.0 0.00 0.00 0.00 83 1018.1
20181210113053 23 333 1.0 8.0 0.00 0.00 0.00 81 1018.3
20181210111558 24 311 4.0 9.0 0.00 0.00 0.00 81 1018.1
20181210110105 24 317 4.0 8.0 0.00 0.00 0.00 82 1017.9
20181210104554 24 342 2.0 4.0 0.00 0.00 0.00 84 1017.8
20181210103034 24 328 1.0 2.0 0.00 0.00 0.00 82 1017.5
20181210101536 25 326 1.0 4.0 0.00 0.00 0.00 84 1017.3
20181210100042 25 335 0.0 2.0 0.00 0.00 0.00 82 1017.2
20181210094545 25 335 0.0 0.0 0.00 0.00 0.00 81 1017.2
20181210093029 25 328 0.0 2.0 0.00 0.00 0.00 79 1017.1
20181210091539 25 359 1.0 3.0 0.00 0.00 0.00 80 1017.1
20181210090027 25 326 0.0 1.0 0.00 0.00 0.00 83 1017.0
20181210084553 25 251 0.0 3.0 0.00 0.00 0.00 83 1016.9
20181210083028 25 8 0.0 2.0 0.00 0.00 0.00 82 1016.9
20181210081547 25 338 0.0 3.0 0.00 0.00 0.00 81 1017.0
20181210080024 25 349 0.0 3.0 0.00 0.00 0.00 81 1017.3
20181210074524 25 318 2.0 6.0 0.00 0.00 0.00 82 1017.6
20181210073016 25 311 1.0 3.0 0.00 0.00 0.00 83 1017.5
20181210071545 25 335 0.0 3.0 0.00 0.00 0.00 82 1017.6
20181210070013 26 82 1.0 3.0 0.00 0.00 0.00 81 1017.7
20181210064511 26 258 1.0 6.0 0.00 0.00 0.00 82 1017.8
20181210063010 26 288 0.0 3.0 0.00 0.00 0.00 81 1017.8
20181210061504 26 283 0.0 4.0 0.00 0.00 0.00 81 1017.8
20181210060003 26 257 0.0 2.0 0.00 0.00 0.00 80 1017.9
20181210054757 27 259 0.0 4.0 0.00 0.00 0.00 80 1017.8
20181210053146 27 258 0.0 4.0 0.00 0.00 0.00 80 1018.1
20181210051622 27 250 0.0 3.0 0.00 0.00 0.00 80 1018.2
20181210050118 27 104 0.0 2.0 0.00 0.00 0.00 80 1018.2
20181210044623 28 252 0.0 4.0 0.00 0.00 0.00 80 1018.2
20181210043158 28 243 0.0 2.0 0.00 0.00 0.00 80 1018.2
20181210041604 28 287 0.0 4.0 0.00 0.00 0.00 79 1018.4
20181210040212 28 279 0.0 2.0 0.00 0.00 0.00 78 1018.3
20181210034703 28 237 0.0 3.0 0.00 0.00 0.00 77 1018.3
20181210033141 28 281 0.0 3.0 0.00 0.00 0.00 76 1018.2
20181210031630 28 257 0.0 5.0 0.00 0.00 0.00 75 1018.4
20181210030135 29 285 0.0 5.0 0.00 0.00 0.00 74 1018.4
20181210024648 29 288 0.0 3.0 0.00 0.00 0.00 73 1018.5
20181210023114 29 329 1.0 5.0 0.00 0.00 0.00 72 1018.7
20181210021635 30 300 0.0 5.0 0.00 0.00 0.00 71 1019.0
20181210020141 30 214 1.0 10.0 0.00 0.00 0.00 71 1019.3
20181210014640 30 255 2.0 8.0 0.00 0.00 0.00 70 1019.2
20181210013115 30 278 2.0 5.0 0.00 0.00 0.00 70 1019.3
20181210011605 30 219 2.0 11.0 0.00 0.00 0.00 69 1019.2
20181210010109 30 283 0.0 4.0 0.00 0.00 0.00 69 1019.3
20181210004558 30 289 2.0 6.0 0.00 0.00 0.00 69 1019.4
20181210003136 30 295 1.0 6.0 0.00 0.00 0.00 68 1019.4
20181210001539 30 237 0.0 5.0 0.00 0.00 0.00 68 1019.6
20181210000051 30 23 0.0 7.0 0.00 0.00 0.00 67 1019.8
20181209234558 30 273 0.0 6.0 0.00 0.00 0.00 67 1020.1
20181209233107 30 95 0.0 6.0 0.00 0.00 0.00 67 1020.5
20181209231544 29 220 1.0 8.0 0.00 0.00 0.00 67 1020.7
20181209230033 29 233 1.0 9.0 0.00 0.00 0.00 67 1020.8
20181209224542 29 253 0.0 5.0 0.00 0.00 0.00 66 1020.9
20181209223029 29 260 1.0 7.0 0.00 0.00 0.00 65 1021.0
20181209221524 28 236 0.0 3.0 0.00 0.00 0.00 66 1021.1
20181209220121 28 332 0.0 4.0 0.00 0.00 0.00 65 1021.2
20181209214525 27 342 0.0 3.0 0.00 0.00 0.00 66 1021.3
20181209213024 27 254 0.0 2.0 0.00 0.00 0.00 67 1021.5
20181209211544 27 228 0.0 3.0 0.00 0.00 0.00 68 1021.6
20181209210018 27 172 0.0 2.0 0.00 0.00 0.00 71 1021.8
20181209204530 27 168 0.0 4.0 0.00 0.00 0.00 70 1022.2
20181209203009 28 128 0.0 3.0 0.00 0.00 0.00 68 1022.5
20181209201515 28 168 1.0 4.0 0.00 0.00 0.00 66 1022.6
20181209200003 28 112 1.0 6.0 0.00 0.00 0.00 67 1022.8
20181209194702 29 143 1.0 4.0 0.00 0.00 0.00 65 1023.0
20181209193149 29 143 2.0 9.0 0.00 0.00 0.00 63 1023.2
20181209191621 29 130 2.0 9.0 0.00 0.00 0.00 61 1023.3
20181209190231 29 136 0.0 7.0 0.00 0.00 0.00 56 1023.6
20181209184716 29 255 2.0 6.0 0.00 0.00 0.00 55 1023.6
20181209183201 30 226 3.0 7.0 0.00 0.00 0.00 49 1023.9
20181209181627 30 252 2.0 8.0 0.00 0.00 0.00 49 1024.2
20181209180136 30 252 0.0 8.0 0.00 0.00 0.00 50 1024.6
20181209174628 30 201 0.0 5.0 0.00 0.00 0.00 49 1024.7
20181209173108 29 348 0.0 3.0 0.00 0.00 0.00 49 1024.7
20181209171628 29 336 0.0 3.0 0.00 0.00 0.00 50 1025.2
20181209170104 30 307 1.0 7.0 0.00 0.00 0.00 48 1025.6
20181209164556 29 207 2.0 9.0 0.00 0.00 0.00 49 1025.8
20181209163106 28 138 0.0 2.0 0.00 0.00 0.00 52 1026.2
20181209161605 28 309 0.0 4.0 0.00 0.00 0.00 52 1026.5
20181209160039 28 243 1.0 6.0 0.00 0.00 0.00 53 1026.9
20181209154552 28 6 0.0 7.0 0.00 0.00 0.00 57 1027.3
20181209153026 27 301 0.0 2.0 0.00 0.00 0.00 59 1027.7
20181209151521 26 321 1.0 3.0 0.00 0.00 0.00 61 1028.0
20181209150118 26 264 1.0 4.0 0.00 0.00 0.00 62 1028.2
20181209144510 25 259 1.0 4.0 0.00 0.00 0.00 64 1028.2
20181209143005 24 321 0.0 2.0 0.00 0.00 0.00 66 1028.3
20181209141503 23 355 1.0 5.0 0.00 0.00 0.00 67 1028.4
20181209140210 23 244 0.0 5.0 0.00 0.00 0.00 70 1028.6
20181209134641 22 307 0.0 4.0 0.00 0.00 0.00 71 1029.0
20181209133208 21 274 0.0 1.0 0.00 0.00 0.00 73 1029.0
20181209131737 20 249 0.0 2.0 0.00 0.00 0.00 74 1028.9
20181209130140 19 241 0.0 1.0 0.00 0.00 0.00 77 1028.9
20181209124649 18 339 0.0 0.0 0.00 0.00 0.00 77 1028.8